Voltar ao catálogo

STARLINK-2322

AtivoComunicaçõesVLEO
NORAD 47791·PAYLOAD·🇺🇸 United States

Lançado Mar 11, 2021 de Cape Canaveral Space Force Station

Loading…

Próximas Passagens (próximas 24 horas)

TLE

AtualizadoSource: CelesTrak SupGP

Época: Sep 14, 2026, 20:26 UTC

1 47791C 21018E   26257.85187500  .00053021  00000+0  12286-2 0  2574
2 47791  53.1583  80.1471 0001290 261.1073 204.4870 15.41823667    17

Acompanhe STARLINK-2322 em tempo real com AllMySat

Download on the App Store